Date,TemperatureHighF,TemperatureAvgF,TemperatureLowF,DewpointHighF,DewpointAvgF,DewpointLowF,HumidityHigh,HumidityAvg,HumidityLow,PressureMaxIn,PressureMinIn,WindSpeedMaxMPH,WindSpeedAvgMPH,GustSpeedMaxMPH,PrecipitationSumIn
2013-7-3,82.0,76.4,66.0,59.0,57.0,55.0,72,52,41,29.94,29.89,8,2,0,0.00
2013-7-4,84.0,72.3,59.0,61.0,56.7,54.0,87,60,39,29.94,29.85,14,4,0,0.00
2013-7-5,88.0,75.2,63.0,64.0,60.8,57.0,88,62,42,29.89,29.80,21,8,0,0.00
2013-7-6,90.0,76.7,68.0,66.0,63.6,61.0,82,65,43,29.86,29.76,22,8,0,0.00
2013-7-7,90.0,80.4,72.0,72.0,66.8,63.0,78,64,48,29.84,29.77,15,6,0,0.00
2013-7-8,86.0,79.1,73.0,73.0,70.6,66.0,94,74,61,29.90,29.83,5,1,0,0.00
2013-7-9,91.0,81.5,73.0,77.0,73.2,70.0,94,77,55,29.90,29.80,9,2,0,0.00
2013-7-10,81.0,74.9,72.0,73.0,70.2,68.0,94,85,78,29.91,29.84,1,0,0,0.00
2013-7-15,90.0,84.2,75.0,72.0,70.0,68.0,83,63,51,30.14,30.06,2,0,0,0.00
2013-7-16,90.0,80.5,70.0,73.0,70.4,66.0,100,73,46,30.19,30.11,2,0,0,0.00
2013-7-17,91.0,81.2,72.0,73.0,70.5,66.0,88,71,43,30.23,30.11,3,0,0,0.00
2013-7-18,81.0,74.3,72.0,72.0,71.2,70.0,100,90,74,30.12,30.06,3,0,0,0.00
2013-7-22,90.0,83.7,70.0,75.0,71.3,66.0,94,67,49,29.79,29.63,3,0,0,0.00
2013-7-23,75.0,68.9,63.0,68.0,61.8,57.0,94,79,56,29.92,29.75,2,0,0,0.00
2013-7-24,81.0,69.4,57.0,63.0,58.6,55.0,100,71,47,30.00,29.91,1,0,0,0.00
2013-7-25,81.0,72.5,61.0,66.0,63.0,57.0,93,73,57,29.99,29.89,5,1,0,0.00
2013-7-26,75.0,68.6,59.0,68.0,58.0,50.0,100,71,43,30.00,29.87,14,4,0,0.00
2013-7-27,59.0,54.1,52.0,52.0,51.3,48.0,93,89,76,30.02,29.98,6,4,0,0.00
2013-7-29,72.0,68.0,63.0,61.0,57.6,54.0,93,70,53,30.05,29.97,9,4,0,0.00
2013-7-30,70.0,65.8,63.0,70.0,64.6,61.0,100,96,88,30.02,29.95,6,1,0,0.00
2013-7-31,82.0,72.0,63.0,72.0,64.9,63.0,100,81,51,30.06,29.95,6,0,0,0.00
2013-8-1,84.0,72.8,61.0,64.0,61.6,57.0,93,70,39,30.01,29.90,8,2,0,0.00
2013-8-2,82.0,72.9,63.0,68.0,62.9,57.0,93,72,54,29.95,29.83,9,2,0,0.00
2013-8-3,79.0,69.4,61.0,61.0,57.3,52.0,100,68,43,30.11,29.95,6,1,0,0.00
2013-8-4,81.0,71.2,61.0,63.0,58.6,55.0,87,66,44,30.12,29.97,10,2,0,0.00
2013-8-5,82.0,72.4,64.0,73.0,68.1,63.0,100,86,69,29.97,29.73,7,1,0,0.00
2013-8-6,90.0,80.5,72.0,73.0,71.5,68.0,94,75,58,29.80,29.71,3,1,0,0.00
2013-8-7,79.0,73.4,66.0,70.0,64.4,61.0,94,74,54,29.94,29.73,7,1,0,0.00
2013-8-8,79.0,70.3,59.0,64.0,61.8,57.0,100,75,54,29.95,29.89,1,0,0,0.00
2013-8-9,81.0,71.8,66.0,68.0,61.9,55.0,93,72,47,30.06,29.93,2,0,0,0.00
2013-8-10,81.0,71.7,59.0,63.0,58.9,54.0,93,65,44,30.14,30.01,1,0,0,0.00
2013-8-11,84.0,72.3,61.0,68.0,63.0,57.0,93,74,54,30.05,29.92,3,1,0,0.00
2013-8-12,82.0,73.4,66.0,70.0,64.6,59.0,100,77,47,29.98,29.92,1,0,0,0.00
2013-8-13,57.0,28.5,57.0,55.0,-22.5,-99.9,93,73,53,30.08,30.03,0,0,0,0.00
2013-9-6,66.0,66.0,66.0,63.0,63.0,63.0,88,88,88,30.04,30.04,2,2,0,0.00
2013-9-7,73.0,48.7,73.0,64.0,9.4,-99.9,73,49,73,29.87,29.84,5,2,0,0.00
2013-9-9,72.0,72.0,72.0,66.0,66.0,66.0,83,83,83,29.76,29.76,1,1,0,0.00
2013-9-10,70.0,70.0,70.0,63.0,63.0,63.0,77,77,77,29.88,29.88,2,2,0,0.00
2013-9-12,73.0,73.0,73.0,48.0,46.5,45.0,40,38,35,30.14,30.13,2,2,0,0.00
2013-9-13,54.0,54.0,54.0,48.0,48.0,48.0,81,81,81,30.12,30.12,0,0,0,0.00
2013-9-14,48.0,24.0,48.0,43.0,-28.5,-99.9,81,40,81,30.02,29.83,5,5,0,0.00
2013-9-15,63.0,63.0,63.0,61.0,61.0,61.0,93,93,93,29.81,29.81,0,0,0,0.00
2013-9-16,52.0,52.0,52.0,50.0,50.0,50.0,93,93,93,30.23,30.23,1,1,0,0.00
2013-9-19,72.0,67.5,63.0,70.0,66.5,63.0,100,97,94,29.71,29.71,3,3,0,0.00
2013-9-28,-200.0,0.0,200.0,-99.9,-99.9,-99.9,0,0,100,29.97,29.97,1,1,0,0.00
2013-9-29,48.0,48.0,48.0,45.0,45.0,45.0,87,87,87,29.97,29.97,1,1,0,0.00
2013-9-30,52.0,52.0,52.0,48.0,48.0,48.0,87,87,87,29.78,29.78,6,6,0,0.00
2013-11-8,39.0,39.0,39.0,28.0,28.0,28.0,64,64,64,29.96,29.96,0,0,0,0.00
2013-11-9,-200.0,0.0,200.0,-99.9,-99.9,-99.9,0,0,100,30.19,30.19,0,0,0,0.00
2013-11-14,34.0,34.0,34.0,23.0,23.0,23.0,64,64,64,29.85,29.85,0,0,0,0.00
2013-12-11,16.0,16.0,16.0,14.0,14.0,14.0,92,92,92,30.26,30.26,0,0,0,0.00